Louisville, KY

3:23 PM EST on February 19, 2018 (GMT -0500)
Louisville International-Standiford

Weather History for KSDF - December, 2011

Change the Weather History Date:

Saturday, December 17, 2011

  Actual Average Record
Temperature  
Mean Temperature 35 °F 37 °F  
Max Temperature 43 °F 45 °F 70 °F (2006)
Min Temperature 27 °F 29 °F 1 °F (1989)
Degree Days  
Heating Degree Days 30 28  
Month to date heating degree days 391 435  
Since 1 July heating degree days 1049 1170  
Cooling Degree Days 0 0  
Month to date cooling degree days 0 0  
Year to date cooling degree days 1852 1613  
Moisture  
Dew Point 24 °F    
Average Humidity 61    
Maximum Humidity 78    
Minimum Humidity 43    
Precipitation  
Precipitation 0.00 in 0.12 in 2.22 in (2016)
Month to date precipitation 3.29 2.11  
Year to date precipitation 66.10 43.19  
Snow  
Snow 0.00 in 0.00 in 2.50 in (1904)
Month to date snowfall T 1.1  
Since 1 July snowfall T 1.3  
Snow Depth 0.00 in    
Sea Level Pressure  
Sea Level Pressure 30.33 in    
Wind  
Wind Speed 6 mph (West)    
Max Wind Speed 14 mph    
Max Gust Speed 18 mph    
Visibility 9 miles    
Events      
T = Trace of Precipitation, MM = Missing Value Source: NWS Daily Summary

Daily Weather History Graph

Daily Weather History Graph

Search for Another Location

Airport or City:

Trip Planner

Search our weather history database for the weather conditions in past years. The results will help you decide how hot, cold, wet, or windy it might be!

Date:

Astronomy

Dec. 17, 2011 Rise Set
Actual Time 7:53 AM EST 5:24 PM EST
Civil Twilight 7:23 AM EST 5:54 PM EST
Nautical Twilight 6:50 AM EST 6:27 PM EST
Astronomical Twilight 6:18 AM EST 6:59 PM EST
Moon No Moon Rise 12:14 PM EST (12/17)
Length of Visible Light 10h 30m
Length of Day
9h 31m
Waning Gibbous, 54% of the Moon is Illuminated
Dec 17
Waning Gibbous
Dec 17
Last Quarter
Dec 24
New
Jan 1
First Quarter
Jan 9
Full

Hourly Weather History & Observations

Time (EST) Temp. Windchill Dew Point Humidity Pressure Visibility Wind Dir Wind Speed Gust Speed Precip Events Conditions
12:56 AM 33.1 °F 27.7 °F 26.1 °F 75% 30.36 in 9.0 mi NNW 5.8 mph - N/A   Overcast
1:56 AM 34.0 °F 28.8 °F 24.1 °F 67% 30.36 in 10.0 mi NW 5.8 mph - N/A   Overcast
2:56 AM 33.1 °F 27.7 °F 24.1 °F 70% 30.35 in 10.0 mi North 5.8 mph - N/A   Overcast
3:56 AM 33.1 °F 28.7 °F 21.9 °F 64% 30.35 in 10.0 mi North 4.6 mph - N/A   Mostly Cloudy
4:56 AM 32.0 °F 28.7 °F 23.0 °F 69% 30.37 in 10.0 mi NNW 3.5 mph - N/A   Mostly Cloudy
5:21 AM 30.2 °F 24.3 °F 23.0 °F 75% 30.35 in 10.0 mi NW 5.8 mph - N/A   Mostly Cloudy
5:56 AM 30.0 °F 26.5 °F 23.0 °F 75% 30.36 in 10.0 mi WNW 3.5 mph - N/A   Scattered Clouds
6:56 AM 28.9 °F - 23.0 °F 78% 30.38 in 9.0 mi Calm Calm - N/A   Scattered Clouds
7:56 AM 28.9 °F - 23.0 °F 78% 30.38 in 7.0 mi Calm Calm - N/A   Scattered Clouds
8:56 AM 30.0 °F 26.5 °F 25.0 °F 82% 30.38 in 6.0 mi South 3.5 mph - N/A   Haze
9:56 AM 33.1 °F 30.0 °F 26.1 °F 75% 30.38 in 7.0 mi SW 3.5 mph - N/A   Scattered Clouds
10:56 AM 35.1 °F - 26.1 °F 70% 30.38 in 8.0 mi Calm Calm - N/A   Mostly Cloudy
11:56 AM 37.0 °F 31.0 °F 26.1 °F 65% 30.37 in 9.0 mi SW 8.1 mph - N/A   Mostly Cloudy
12:56 PM 39.0 °F 34.8 °F 26.1 °F 60% 30.33 in 9.0 mi West 5.8 mph - N/A   Scattered Clouds
1:56 PM 41.0 °F 37.1 °F 24.1 °F 51% 30.30 in 10.0 mi West 5.8 mph - N/A   Partly Cloudy
2:56 PM 42.1 °F 37.1 °F 21.0 °F 43% 30.27 in 10.0 mi SW 8.1 mph - N/A   Partly Cloudy
3:56 PM 41.0 °F 34.7 °F 21.9 °F 47% 30.27 in 10.0 mi SW 10.4 mph - N/A   Scattered Clouds
4:56 PM 41.0 °F 34.7 °F 23.0 °F 49% 30.27 in 10.0 mi SW 10.4 mph - N/A   Scattered Clouds
5:56 PM 39.0 °F 32.8 °F 24.1 °F 55% 30.27 in 10.0 mi WSW 9.2 mph - N/A   Partly Cloudy
6:56 PM 37.0 °F 31.0 °F 24.1 °F 59% 30.29 in 10.0 mi WSW 8.1 mph - N/A   Partly Cloudy
7:56 PM 36.0 °F 30.3 °F 24.1 °F 62% 30.30 in 10.0 mi West 6.9 mph - N/A   Mostly Cloudy
8:56 PM 37.9 °F 33.5 °F 25.0 °F 60% 30.30 in 10.0 mi West 5.8 mph - N/A   Overcast
9:56 PM 37.9 °F 32.7 °F 26.1 °F 62% 30.28 in 10.0 mi SW 6.9 mph - N/A   Mostly Cloudy
10:56 PM 37.0 °F 31.0 °F 27.0 °F 67% 30.30 in 10.0 mi WSW 8.1 mph - N/A   Partly Cloudy
11:56 PM 34.0 °F 28.0 °F 27.0 °F 75% 30.30 in 9.0 mi West 6.9 mph - N/A   Clear